Weather History for Zacatecas Airport, Mexico

Change the Weather History Date:

Wednesday, October 30, 2013

  Actual Average Record
Temperature  
Mean Temperature 60 °F -  
Max Temperature 73 °F 72 °F 78 °F (1996)
Min Temperature 48 °F 40 °F 32 °F (2007)
Degree Days  
Heating Degree Days 4    
Growing Degree Days 10 (Base 50)    
Moisture  
Dew Point 50 °F    
Average Humidity 70    
Maximum Humidity 87    
Minimum Humidity 41    
Precipitation  
Precipitation 0.00 in - - ()
Sea Level Pressure  
Sea Level Pressure 30.25 in    
Wind  
Wind Speed 4 mph ()    
Max Wind Speed 12 mph    
Max Gust Speed -    
Visibility 9.3 miles    
Events      
Averages and records for this station are not official NWS values.
T = Trace of Precipitation, MM = Missing Value Source: Averaged Metar Reports

Daily Weather History Graph

Daily Weather History Graph

Search for Another Location

Airport:

Trip Planner

Search our weather history database for the weather conditions in past years. The results will help you decide how hot, cold, wet, or windy it might be!

Date:

Astronomy

Oct. 30, 2013 Rise Set
Actual Time 6:54 AM CST 6:13 PM CST
Civil Twilight 6:31 AM CST 6:36 PM CST
Nautical Twilight 6:04 AM CST 7:03 PM CST
Astronomical Twilight 5:38 AM CST 7:29 PM CST
Moon 3:12 AM CST (10/30) 3:37 PM CST (10/30)
Length of Visible Light 12h 05m
Length of Day
11h 19m
Waning Crescent, 16% of the Moon is Illuminated
Oct 30
Waning Crescent
Nov 3
New
Nov 9
First Quarter
Nov 17
Full
Nov 25
Last Quarter

Hourly Weather History & Observations

Time (CST) Temp. Dew Point Humidity Pressure Visibility Wind Dir Wind Speed Gust Speed Precip Events Conditions
12:42 AM 53.6 °F 46.4 °F 77% 30.29 in 10.0 mi Calm Calm - N/A   Clear
1:42 AM 51.8 °F 46.4 °F 82% 30.28 in 10.0 mi Calm Calm - N/A   Clear
2:42 AM 51.8 °F 46.4 °F 82% 30.28 in 10.0 mi Calm Calm - N/A   Clear
3:42 AM 50.0 °F 44.6 °F 82% 30.26 in 10.0 mi Calm Calm - N/A   Clear
4:41 AM 51.8 °F 46.4 °F 82% 30.25 in 10.0 mi SSW 5.8 mph - N/A   Clear
5:42 AM 48.2 °F 44.6 °F 87% 30.24 in 10.0 mi SSW 5.8 mph - N/A   Clear
6:44 AM 51.8 °F 46.4 °F 82% 30.26 in 8.0 mi SSW 6.9 mph - N/A   Partly Cloudy
7:48 AM 53.6 °F 48.2 °F 82% 30.28 in 8.0 mi South 5.8 mph - N/A   Overcast
8:40 AM 59.0 °F 53.6 °F 82% 30.30 in 10.0 mi Calm Calm - N/A   Mostly Cloudy
9:46 AM 64.4 °F 50.0 °F 59% 30.31 in 10.0 mi Calm Calm - N/A   Mostly Cloudy
10:54 AM 71.6 °F 51.8 °F 50% 30.29 in 10.0 mi Calm Calm - N/A   Overcast
11:46 AM 73.4 °F 51.8 °F 47% 30.28 in 10.0 mi SSW 3.5 mph - N/A   Overcast
12:48 PM 73.4 °F 48.2 °F 41% 30.24 in 10.0 mi SW 4.6 mph - N/A   Overcast
1:45 PM 71.6 °F 51.8 °F 50% 30.20 in 10.0 mi ESE 9.2 mph - N/A   Mostly Cloudy
2:51 PM 69.8 °F 51.8 °F 53% 30.19 in 10.0 mi NE 11.5 mph - N/A   Mostly Cloudy
3:46 PM 69.8 °F 53.6 °F 56% 30.17 in 8.0 mi NE 8.1 mph - N/A   Mostly Cloudy
4:45 PM 69.8 °F 55.4 °F 60% 30.18 in 8.0 mi WSW 10.4 mph - N/A   Mostly Cloudy
5:49 PM 66.2 °F 53.6 °F 64% 30.19 in 8.0 mi SW 11.5 mph - N/A   Mostly Cloudy
6:57 PM 62.6 °F 53.6 °F 72% 30.20 in 8.0 mi SW 9.2 mph - N/A   Mostly Cloudy
7:44 PM 60.8 °F 51.8 °F 72% 30.23 in 8.0 mi WNW 5.8 mph - N/A   Mostly Cloudy
8:50 PM 60.8 °F 53.6 °F 77% 30.25 in 8.0 mi South 6.9 mph - N/A   Mostly Cloudy
9:41 PM 60.8 °F 51.8 °F 72% 30.26 in 10.0 mi South 9.2 mph - N/A   Mostly Cloudy
10:40 PM 59.0 °F 51.8 °F 77% 30.26 in 10.0 mi South 8.1 mph - N/A   Mostly Cloudy
11:40 PM 59.0 °F 53.6 °F 82% 30.28 in 10.0 mi SSW 5.8 mph - N/A   Mostly Cloudy